Regional Weather Roundup
Issued by NWS

Home | Current Version | Previous Version | Graphics & Text | Print | Product List | Glossary On
Versions: 1 2 3 4 5 6 7 8 9 10 11 12 13 14 15 16 17 18 19 20 21 22 23 24 25 26 27 28 29 30 31 32 33 34 35 36 37 38 39 40 41 42 43 44 45 46 47 48 49 50
000
ASUS43 KLMK 200602
RWRKY
KENTUCKY REGIONAL WEATHER ROUNDUP
NATIONAL WEATHER SERVICE LOUISVILLE KY
100 AM EST SAT DEC 20 2014

NOTE "FAIR" INDICATES FEW OR NO CLOUDS BELOW 12,000 FEET
WITH NO SIGNIFICANT WEATHER AND/OR OBSTRUCTIONS TO VISIBILITY.

KYZ001>023-026-027-061>063-070>075-200700-
WESTERN AND SOUTH CENTRAL KENTUCKY

CITY           SKY/WX    TMP DP  RH WIND       PRES   REMARKS
PADUCAH        CLOUDY    34  28  79 NE3       30.26F
HENDERSON      CLOUDY    32  23  69 E6        30.28S WCI  26
OWENSBORO      MIX PCPN  32  25  76 E5        30.29S WCI  27
HOPKINSVILLE   MOCLDY    32  27  81 N3        30.24S
BOWLING GREEN  CLOUDY    34  25  69 NE6       30.25F WCI  29
GLASGOW        NOT AVBL
$$

KYZ024-025-028>034-038-045-046-053-200700-
NORTH CENTRAL KENTUCKY

CITY           SKY/WX    TMP DP  RH WIND       PRES   REMARKS
LOUISVILLE/SDF CLOUDY    31  22  69 E3        30.28R
LOUISVILLE/LOU CLOUDY    30  22  72 CALM      30.28R
FORT KNOX      CLOUDY    29  22  76 NE7       30.25R WCI  21
$$

KYZ035>037-039>044-047>052-055>060-089>105-200700-
NORTHEAST KENTUCKY

CITY           SKY/WX    TMP DP  RH WIND       PRES   REMARKS
LEXINGTON      CLOUDY    27  22  81 E5        30.24F WCI  22
COVINGTON      CLOUDY    30  21  69 SE7       30.25S WCI  23
FRANKFORT      CLOUDY    26  21  81 CALM      30.25S
$$

KYZ054-064>069-076>088-106>120-200700-
SOUTHEAST KENTUCKY

CITY           SKY/WX    TMP DP  RH WIND       PRES   REMARKS
JACKSON        PTCLDY    27  21  78 NE3       30.21S
LONDON         MOCLDY    30  23  75 N5        30.20S WCI  25
SOMERSET       NOT AVBL
MIDDLESBORO    NOT AVBL
MONTICELLO     CLOUDY    32  27  82 CALM      30.24F
$$



USA.gov is the U.S. government's official web portal to all federal, state and local government web resources and services.